GEC8161 KJFK-EDDF

Flight info

Callsign GEC8161
Flight time 7h 3m
Altitude 33000
Route MERIT DCT HFD DCT PUT DCT TOPPS N557A NEEKO/M083F350 DCT 54N050W 55N040W 55N030W 54N020W DCT MALOT DCT GISTI/N0483F350 DCT ENJEX DCT ADHAV DCT AXNEF DCT ZIPWE DCT OZZIL DCT SAWPE Q63 CPT UL9 BIG L607 KONAN DCT KOK UL607 FERDI DCT REMBA DCT SPI T180 NIVNU T847 IMCOM IMCOM1D
Aircraft B77L/H-SDE1E2E3FGHIJ2J3J4J5M1RWXY/LB1D1

Departure

Time 2026-05-01 07:38
Airport John F. Kennedy International Airport (KJFK)

Arrival

Time 2026-05-01 14:42
Airport Frankfurt Main Airport (EDDF)
Time Latitude Longitude Altitude Speed Heading
2026-05-01 07:23 40.65129 -73.80150 24 ft 1 kts 91°
2026-05-01 07:25 40.65127 -73.80145 24 ft 1 kts 109°
2026-05-01 07:25 40.65127 -73.80141 27 ft 0 kts 100°
2026-05-01 07:26 40.65127 -73.80143 24 ft 3 kts 101°
2026-05-01 07:26 40.65113 -73.80117 30 ft 4 kts 144°
2026-05-01 07:26 40.65096 -73.80088 29 ft 4 kts 115°
2026-05-01 07:26 40.65093 -73.80051 29 ft 4 kts 92°
2026-05-01 07:27 40.65094 -73.80013 28 ft 4 kts 81°
2026-05-01 07:27 40.65105 -73.79979 26 ft 4 kts 63°
2026-05-01 07:27 40.65120 -73.79945 28 ft 5 kts 58°
2026-05-01 07:27 40.65142 -73.79903 28 ft 6 kts 53°
2026-05-01 07:28 40.65170 -73.79848 29 ft 8 kts 65°
2026-05-01 07:28 40.65147 -73.79791 26 ft 9 kts 149°
2026-05-01 07:28 40.65090 -73.79748 29 ft 11 kts 150°
2026-05-01 07:28 40.65007 -73.79703 27 ft 14 kts 173°
2026-05-01 07:29 40.64913 -73.79703 26 ft 14 kts 181°
2026-05-01 07:29 40.64817 -73.79703 25 ft 14 kts 172°
2026-05-01 07:29 40.64731 -73.79644 24 ft 14 kts 145°
2026-05-01 07:29 40.64652 -73.79571 26 ft 14 kts 145°
2026-05-01 07:30 40.64568 -73.79514 29 ft 14 kts 165°
2026-05-01 07:30 40.64475 -73.79498 28 ft 13 kts 175°
2026-05-01 07:30 40.64382 -73.79490 27 ft 13 kts 180°
2026-05-01 07:30 40.64289 -73.79495 27 ft 13 kts 184°
2026-05-01 07:31 40.64199 -73.79504 30 ft 13 kts 184°
2026-05-01 07:31 40.64036 -73.79421 30 ft 12 kts 121°
2026-05-01 07:32 40.63907 -73.79138 28 ft 19 kts 121°
2026-05-01 07:32 40.63838 -73.78987 28 ft 19 kts 121°
2026-05-01 07:33 40.63702 -73.78686 31 ft 19 kts 121°
2026-05-01 07:33 40.63634 -73.78535 29 ft 19 kts 121°
2026-05-01 07:33 40.63499 -73.78235 31 ft 19 kts 121°
2026-05-01 07:34 40.63432 -73.78088 29 ft 19 kts 120°
2026-05-01 07:34 40.63304 -73.77795 28 ft 19 kts 121°
2026-05-01 07:34 40.63237 -73.77650 28 ft 19 kts 121°
2026-05-01 07:35 40.63172 -73.77505 26 ft 18 kts 120°
2026-05-01 07:35 40.63107 -73.77360 31 ft 17 kts 120°
2026-05-01 07:35 40.63064 -73.77264 29 ft 12 kts 121°
2026-05-01 07:35 40.63026 -73.77181 31 ft 11 kts 121°
2026-05-01 07:36 40.62980 -73.77106 28 ft 11 kts 146°
2026-05-01 07:36 40.62911 -73.77111 30 ft 11 kts 210°
2026-05-01 07:36 40.62848 -73.77161 26 ft 11 kts 210°
2026-05-01 07:36 40.62817 -73.77190 26 ft 5 kts 233°
2026-05-01 07:37 40.62860 -73.77307 27 ft 28 kts 300°
2026-05-01 07:37 40.63072 -73.77777 30 ft 90 kts 300°
2026-05-01 07:37 40.63490 -73.78700 27 ft 142 kts 301°
2026-05-01 07:38 40.64067 -73.79969 62 ft 174 kts 301°
2026-05-01 07:38 40.64665 -73.81313 607 ft 169 kts 303°
2026-05-01 07:38 40.66532 -73.82776 1400 ft 177 kts 16°
2026-05-01 07:39 40.67548 -73.81825 1840 ft 182 kts 37°
2026-05-01 07:39 40.68521 -73.80662 2082 ft 198 kts 36°
2026-05-01 07:39 40.70793 -73.78151 2669 ft 232 kts 34°
2026-05-01 07:40 40.72109 -73.76795 3019 ft 247 kts 34°
2026-05-01 07:40 40.73489 -73.75384 3609 ft 255 kts 34°
2026-05-01 07:40 40.74917 -73.73951 4218 ft 261 kts 33°
2026-05-01 07:40 40.76391 -73.72499 4835 ft 268 kts 33°
2026-05-01 07:41 40.77911 -73.71023 5465 ft 273 kts 33°
2026-05-01 07:41 40.79458 -73.69534 6115 ft 278 kts 33°
2026-05-01 07:41 40.82637 -73.66506 7373 ft 285 kts 33°
2026-05-01 07:42 40.84257 -73.64970 8014 ft 289 kts 32°
2026-05-01 07:42 40.85902 -73.63415 8659 ft 292 kts 32°
2026-05-01 07:42 40.87544 -73.61864 9292 ft 296 kts 32°
2026-05-01 07:42 40.89230 -73.60274 9916 ft 299 kts 32°
2026-05-01 07:43 40.90943 -73.58659 10367 ft 309 kts 32°
2026-05-01 07:43 40.92758 -73.56953 10519 ft 331 kts 32°
2026-05-01 07:43 40.96752 -73.53193 10876 ft 374 kts 32°
2026-05-01 07:44 41.01121 -73.49059 11932 ft 395 kts 32°
2026-05-01 07:44 41.05648 -73.44762 13493 ft 406 kts 32°
2026-05-01 07:45 41.07960 -73.42568 14162 ft 412 kts 31°
2026-05-01 07:45 41.10298 -73.40347 14856 ft 416 kts 31°
2026-05-01 07:45 41.12664 -73.38099 15539 ft 420 kts 31°
2026-05-01 07:45 41.15053 -73.35827 16231 ft 425 kts 31°
2026-05-01 07:46 41.17471 -73.33525 16905 ft 430 kts 31°
2026-05-01 07:46 41.19916 -73.31196 17598 ft 435 kts 31°
2026-05-01 07:46 41.24884 -73.26456 18800 ft 445 kts 31°
2026-05-01 07:47 41.27405 -73.24046 19388 ft 448 kts 31°
2026-05-01 07:47 41.29944 -73.21617 19986 ft 452 kts 31°
2026-05-01 07:47 41.32504 -73.19166 20556 ft 455 kts 31°
2026-05-01 07:47 41.35077 -73.16664 21119 ft 461 kts 34°
2026-05-01 07:48 41.39610 -73.10442 22229 ft 477 kts 50°
2026-05-01 07:48 41.41422 -73.06777 22771 ft 483 kts 57°
2026-05-01 07:48 41.43108 -73.02890 23320 ft 487 kts 58°
2026-05-01 07:49 41.44818 -72.98901 23793 ft 491 kts 58°
2026-05-01 07:49 41.48224 -72.91021 24685 ft 497 kts 58°
2026-05-01 07:49 41.49968 -72.87028 25151 ft 500 kts 58°
2026-05-01 07:50 41.51728 -72.83013 25589 ft 503 kts 58°
2026-05-01 07:50 41.55285 -72.74908 26470 ft 509 kts 58°
2026-05-01 07:50 41.57079 -72.70811 26891 ft 512 kts 58°
2026-05-01 07:51 41.58880 -72.66688 27312 ft 515 kts 59°
2026-05-01 07:51 41.60691 -72.62537 27725 ft 518 kts 59°
2026-05-01 07:51 41.62510 -72.58363 28099 ft 522 kts 59°
2026-05-01 07:52 41.66205 -72.49946 28840 ft 528 kts 59°
2026-05-01 07:52 41.68106 -72.45731 29218 ft 531 kts 58°
2026-05-01 07:52 41.70030 -72.41491 29587 ft 533 kts 59°
2026-05-01 07:53 41.73874 -72.32996 30407 ft 533 kts 59°
2026-05-01 07:53 41.75781 -72.28754 30830 ft 531 kts 59°
2026-05-01 07:53 41.77683 -72.24508 31185 ft 531 kts 59°
2026-05-01 07:53 41.79580 -72.20261 31535 ft 531 kts 59°
2026-05-01 07:54 41.83368 -72.11766 32313 ft 530 kts 59°
2026-05-01 07:55 41.89036 -71.99012 32877 ft 533 kts 59°
2026-05-01 07:56 41.99905 -71.79268 32867 ft 525 kts 41°
2026-05-01 07:57 42.08311 -71.69858 32856 ft 524 kts 39°
2026-05-01 07:58 42.18598 -71.58337 32872 ft 526 kts 39°
2026-05-01 07:59 42.29798 -71.45597 32856 ft 527 kts 40°
2026-05-01 08:00 42.46605 -71.26371 32850 ft 527 kts 40°
2026-05-01 08:01 42.57753 -71.13546 32866 ft 527 kts 41°
2026-05-01 08:02 42.66120 -71.03879 32882 ft 526 kts 41°
2026-05-01 08:03 42.74473 -70.94190 32864 ft 526 kts 41°
2026-05-01 08:03 42.82820 -70.84477 32842 ft 525 kts 41°
2026-05-01 08:04 42.93901 -70.71520 32818 ft 525 kts 42°
2026-05-01 08:05 43.02211 -70.61765 32820 ft 525 kts 42°
2026-05-01 08:06 43.10474 -70.52029 32788 ft 525 kts 42°
2026-05-01 08:07 43.21508 -70.38969 32823 ft 524 kts 43°
2026-05-01 08:08 43.29776 -70.29141 32819 ft 524 kts 43°
2026-05-01 08:09 43.40793 -70.15988 32819 ft 525 kts 43°
2026-05-01 08:09 43.46300 -70.09389 32815 ft 525 kts 43°
2026-05-01 08:10 43.57306 -69.96151 32797 ft 525 kts 43°
2026-05-01 08:11 43.68272 -69.82893 32809 ft 523 kts 44°
2026-05-01 08:12 43.76471 -69.72937 32796 ft 522 kts 44°
2026-05-01 08:13 43.84637 -69.62982 32805 ft 521 kts 44°
2026-05-01 08:13 43.92791 -69.53006 32803 ft 521 kts 44°
2026-05-01 08:14 43.98219 -69.46343 32799 ft 521 kts 44°
2026-05-01 08:14 44.02515 -69.41057 32794 ft 521 kts 44°
2026-05-01 08:15 44.09660 -69.32245 32777 ft 520 kts 44°
2026-05-01 08:16 44.15069 -69.25552 32776 ft 520 kts 45°
2026-05-01 08:16 44.20475 -69.18847 32776 ft 520 kts 45°
2026-05-01 08:17 44.25871 -69.12136 32766 ft 520 kts 45°
2026-05-01 08:17 44.31259 -69.05418 32769 ft 519 kts 45°
2026-05-01 08:18 44.36645 -68.98687 32760 ft 519 kts 45°
2026-05-01 08:19 44.47381 -68.85215 32756 ft 518 kts 45°
2026-05-01 08:19 44.52736 -68.78470 32761 ft 518 kts 45°
2026-05-01 08:20 44.58089 -68.71710 32755 ft 517 kts 45°
2026-05-01 08:20 44.63430 -68.64947 32754 ft 517 kts 45°
2026-05-01 08:21 44.68765 -68.58173 32747 ft 517 kts 45°
2026-05-01 08:21 44.74054 -68.51443 32753 ft 516 kts 45°
2026-05-01 08:22 44.79375 -68.44653 32753 ft 516 kts 45°
2026-05-01 08:22 44.84689 -68.37854 32756 ft 516 kts 45°
2026-05-01 08:23 44.89998 -68.31044 32758 ft 516 kts 46°
2026-05-01 08:23 44.95294 -68.24232 32745 ft 515 kts 46°
2026-05-01 08:24 45.00586 -68.17408 32738 ft 515 kts 46°
2026-05-01 08:24 45.05872 -68.10575 32733 ft 515 kts 46°
2026-05-01 08:25 45.11153 -68.03730 32748 ft 514 kts 46°
2026-05-01 08:25 45.16427 -67.96875 32750 ft 515 kts 46°
2026-05-01 08:26 45.21699 -67.90005 32696 ft 515 kts 46°
2026-05-01 08:26 45.26967 -67.83122 32736 ft 515 kts 47°
2026-05-01 08:27 45.32246 -67.76204 32748 ft 517 kts 47°
2026-05-01 08:27 45.37506 -67.69229 32740 ft 518 kts 47°
2026-05-01 08:28 45.42712 -67.62140 32745 ft 518 kts 48°
2026-05-01 08:28 45.47908 -67.55021 32747 ft 518 kts 48°
2026-05-01 08:29 45.53106 -67.47907 32745 ft 518 kts 48°
2026-05-01 08:29 45.58302 -67.40791 32737 ft 517 kts 48°
2026-05-01 08:30 45.63487 -67.33674 32741 ft 517 kts 48°
2026-05-01 08:30 45.68665 -67.26546 32745 ft 516 kts 48°
2026-05-01 08:31 45.73795 -67.19466 32745 ft 516 kts 49°
2026-05-01 08:31 45.78953 -67.12324 32745 ft 516 kts 49°
2026-05-01 08:32 45.84111 -67.05163 32763 ft 516 kts 49°
2026-05-01 08:32 45.89266 -66.97987 32754 ft 516 kts 49°
2026-05-01 08:33 45.94417 -66.90798 32758 ft 516 kts 49°
2026-05-01 08:33 45.99565 -66.83594 32753 ft 516 kts 49°
2026-05-01 08:34 46.04706 -66.76379 32738 ft 516 kts 49°
2026-05-01 08:34 46.09854 -66.69134 32760 ft 518 kts 49°
2026-05-01 08:35 46.15018 -66.61847 32767 ft 520 kts 49°
2026-05-01 08:35 46.20185 -66.54534 32767 ft 521 kts 49°
2026-05-01 08:36 46.25367 -66.47182 32776 ft 522 kts 49°
2026-05-01 08:36 46.30553 -66.39804 32781 ft 522 kts 49°
2026-05-01 08:37 46.35725 -66.32424 32792 ft 522 kts 49°
2026-05-01 08:37 46.40892 -66.25032 32797 ft 522 kts 49°
2026-05-01 08:38 46.46049 -66.17632 32794 ft 521 kts 50°
2026-05-01 08:38 46.51154 -66.10286 32800 ft 520 kts 50°
2026-05-01 08:39 46.56206 -66.02808 32794 ft 514 kts 55°
2026-05-01 08:39 46.59976 -65.94178 32825 ft 501 kts 70°
2026-05-01 08:40 46.64178 -65.80323 32799 ft 499 kts 75°
2026-05-01 08:40 46.66610 -65.70787 32815 ft 504 kts 77°
2026-05-01 08:41 46.68802 -65.61077 32831 ft 505 kts 78°
2026-05-01 08:41 46.71153 -65.51410 32835 ft 508 kts 73°
2026-05-01 08:42 46.74421 -65.42187 32846 ft 515 kts 65°
2026-05-01 08:42 46.78480 -65.33519 32843 ft 521 kts 55°
2026-05-01 08:43 46.83158 -65.25436 32851 ft 521 kts 53°
2026-05-01 08:43 46.87890 -65.17407 32857 ft 521 kts 53°
2026-05-01 08:44 46.93039 -65.09948 32865 ft 525 kts 39°
2026-05-01 08:44 46.98067 -65.04914 32868 ft 527 kts 34°
2026-05-01 08:45 47.05288 -64.98192 32875 ft 530 kts 33°
2026-05-01 08:45 47.11544 -64.92415 32874 ft 532 kts 33°
2026-05-01 08:46 47.16802 -64.87568 32876 ft 533 kts 33°
2026-05-01 08:46 47.23074 -64.81753 32881 ft 533 kts 33°
2026-05-01 08:47 47.29299 -64.75959 32885 ft 532 kts 33°
2026-05-01 08:47 47.35552 -64.70127 32899 ft 531 kts 33°
2026-05-01 08:48 47.41778 -64.64306 32881 ft 529 kts 33°
2026-05-01 08:48 47.48077 -64.58751 32911 ft 526 kts 27°
2026-05-01 08:49 47.54630 -64.53952 32957 ft 524 kts 30°
2026-05-01 08:49 47.60576 -64.47778 32909 ft 521 kts 43°
2026-05-01 08:50 47.65757 -64.40309 32937 ft 519 kts 48°
2026-05-01 08:50 47.70660 -64.32442 32936 ft 519 kts 49°
2026-05-01 08:51 47.75577 -64.24589 32944 ft 519 kts 48°
2026-05-01 08:51 47.80553 -64.16809 32950 ft 519 kts 48°
2026-05-01 08:52 47.85558 -64.09045 32954 ft 520 kts 47°
2026-05-01 08:52 47.90553 -64.01277 32963 ft 519 kts 47°
2026-05-01 08:53 47.95533 -63.93503 32960 ft 518 kts 47°
2026-05-01 08:53 48.00492 -63.85729 32963 ft 516 kts 47°
2026-05-01 08:54 48.05401 -63.78008 32970 ft 516 kts 47°
2026-05-01 08:54 48.10335 -63.70226 32986 ft 515 kts 47°
2026-05-01 08:55 48.15264 -63.62428 32987 ft 515 kts 48°
2026-05-01 08:55 48.20184 -63.54621 32987 ft 516 kts 48°
2026-05-01 08:56 48.25096 -63.46804 32992 ft 514 kts 47°
2026-05-01 08:56 48.29984 -63.39004 32995 ft 512 kts 48°
2026-05-01 08:57 48.34853 -63.31208 32996 ft 510 kts 48°
2026-05-01 08:57 48.39701 -63.23424 33009 ft 509 kts 48°
2026-05-01 08:58 48.44526 -63.15654 33005 ft 507 kts 48°
2026-05-01 08:58 48.49333 -63.07888 33026 ft 505 kts 48°
2026-05-01 08:59 48.54119 -63.00133 33030 ft 505 kts 48°
2026-05-01 08:59 48.58902 -62.92361 33039 ft 505 kts 48°
2026-05-01 09:00 48.63673 -62.84583 33050 ft 505 kts 48°
2026-05-01 09:00 48.68444 -62.76784 33050 ft 505 kts 48°
2026-05-01 09:01 48.73187 -62.69008 33057 ft 506 kts 49°
2026-05-01 09:01 48.77986 -62.61118 33064 ft 506 kts 49°
2026-05-01 09:02 48.82744 -62.53267 33065 ft 505 kts 49°
2026-05-01 09:02 48.87461 -62.45462 33072 ft 505 kts 49°
2026-05-01 09:03 48.92201 -62.37595 33083 ft 504 kts 49°
2026-05-01 09:03 48.96926 -62.29731 33088 ft 503 kts 49°
2026-05-01 09:04 49.01641 -62.21859 33090 ft 503 kts 50°
2026-05-01 09:04 49.06345 -62.13981 33103 ft 502 kts 50°
2026-05-01 09:05 49.11046 -62.06087 33110 ft 502 kts 50°
2026-05-01 09:05 49.15745 -61.98168 33111 ft 503 kts 50°
2026-05-01 09:06 49.20439 -61.90234 33115 ft 503 kts 50°
2026-05-01 09:06 49.25133 -61.82276 33114 ft 504 kts 50°
2026-05-01 09:07 49.29827 -61.74296 33121 ft 505 kts 50°
2026-05-01 09:07 49.34522 -61.66288 33126 ft 505 kts 50°
2026-05-01 09:08 49.39217 -61.58255 33129 ft 506 kts 50°
2026-05-01 09:08 49.43908 -61.50203 33121 ft 506 kts 50°
2026-05-01 09:09 49.48568 -61.42182 33136 ft 506 kts 50°
2026-05-01 09:09 49.53252 -61.34092 33138 ft 506 kts 50°
2026-05-01 09:10 49.57932 -61.25985 33139 ft 506 kts 51°
2026-05-01 09:10 49.62606 -61.17864 33144 ft 506 kts 50°
2026-05-01 09:11 49.67276 -61.09722 33156 ft 506 kts 50°
2026-05-01 09:11 49.71942 -61.01563 33155 ft 506 kts 51°
2026-05-01 09:12 49.76601 -60.93391 33164 ft 506 kts 51°
2026-05-01 09:12 49.81253 -60.85204 33169 ft 506 kts 51°
2026-05-01 09:13 49.85898 -60.77004 33169 ft 506 kts 51°
2026-05-01 09:13 49.90534 -60.68794 33168 ft 506 kts 51°
2026-05-01 09:14 49.95168 -60.60559 33169 ft 506 kts 50°
2026-05-01 09:14 49.99767 -60.52364 33200 ft 507 kts 51°
2026-05-01 09:15 50.04394 -60.44091 33183 ft 507 kts 51°
2026-05-01 09:15 50.09020 -60.35794 33197 ft 507 kts 51°
2026-05-01 09:16 50.13644 -60.27473 33200 ft 508 kts 50°
2026-05-01 09:17 50.20573 -60.14956 33206 ft 508 kts 50°
2026-05-01 09:17 50.27485 -60.02407 33220 ft 508 kts 50°
2026-05-01 09:18 50.34384 -59.89819 33227 ft 508 kts 50°
2026-05-01 09:19 50.41268 -59.77202 33230 ft 508 kts 50°
2026-05-01 09:20 50.48138 -59.64544 33240 ft 508 kts 50°
2026-05-01 09:21 50.57242 -59.47676 33243 ft 507 kts 50°
2026-05-01 09:21 50.64073 -59.34946 33254 ft 507 kts 50°
2026-05-01 09:22 50.73164 -59.17908 33241 ft 507 kts 50°
2026-05-01 09:23 50.79965 -59.05089 33254 ft 507 kts 50°
2026-05-01 09:24 50.86748 -58.92237 33257 ft 507 kts 51°
2026-05-01 09:25 50.95725 -58.75131 33255 ft 506 kts 51°
2026-05-01 09:26 51.02452 -58.62236 33256 ft 505 kts 51°
2026-05-01 09:26 51.09163 -58.49310 33255 ft 505 kts 52°
2026-05-01 09:27 51.15854 -58.36357 33255 ft 505 kts 52°
2026-05-01 09:28 51.20305 -58.27702 33261 ft 505 kts 52°
2026-05-01 09:28 51.24749 -58.19031 33264 ft 505 kts 52°
2026-05-01 09:29 51.31407 -58.05990 33264 ft 505 kts 53°
2026-05-01 09:30 51.38051 -57.92906 33273 ft 505 kts 53°
2026-05-01 09:30 51.44661 -57.79824 33278 ft 506 kts 54°
2026-05-01 09:31 51.49082 -57.71037 33279 ft 506 kts 54°
2026-05-01 09:32 51.55702 -57.57825 33277 ft 506 kts 54°
2026-05-01 09:32 51.62303 -57.44579 33283 ft 505 kts 54°
2026-05-01 09:33 51.66693 -57.35735 33277 ft 505 kts 54°
2026-05-01 09:34 51.73248 -57.22468 33292 ft 504 kts 55°
2026-05-01 09:34 51.79049 -57.10671 33310 ft 504 kts 55°
2026-05-01 09:35 51.85574 -56.97336 33304 ft 504 kts 55°
2026-05-01 09:36 51.89910 -56.88433 33305 ft 504 kts 55°
2026-05-01 09:36 51.94241 -56.79513 33309 ft 504 kts 55°
2026-05-01 09:37 51.98564 -56.70579 33308 ft 503 kts 55°
2026-05-01 09:37 52.05028 -56.57158 33309 ft 503 kts 55°
2026-05-01 09:38 52.11470 -56.43716 33311 ft 502 kts 56°
2026-05-01 09:39 52.17894 -56.30238 33302 ft 502 kts 55°
2026-05-01 09:39 52.22161 -56.21245 33307 ft 501 kts 55°
2026-05-01 09:40 52.28547 -56.07728 33305 ft 501 kts 56°
2026-05-01 09:41 52.32765 -55.98759 33306 ft 501 kts 56°
2026-05-01 09:41 52.39097 -55.85177 33305 ft 499 kts 57°
2026-05-01 09:42 52.42585 -55.75348 33324 ft 494 kts 66°
2026-05-01 09:43 52.48663 -55.55206 33300 ft 494 kts 66°
2026-05-01 09:43 52.51726 -55.45133 33309 ft 493 kts 66°
2026-05-01 09:44 52.56321 -55.30026 33310 ft 492 kts 66°
2026-05-01 09:45 52.59370 -55.19953 33315 ft 492 kts 66°
2026-05-01 09:45 52.62421 -55.09822 33661 ft 495 kts 66°
2026-05-01 09:45 52.63938 -55.04767 34180 ft 491 kts 66°
2026-05-01 09:46 52.65451 -54.99720 34330 ft 493 kts 66°
2026-05-01 09:46 52.66962 -54.94663 34318 ft 491 kts 66°
2026-05-01 09:46 52.69954 -54.84626 34316 ft 485 kts 66°
2026-05-01 09:47 52.72917 -54.74643 34323 ft 484 kts 66°
2026-05-01 09:47 52.75848 -54.64721 34330 ft 484 kts 66°
2026-05-01 09:48 52.78790 -54.54721 34327 ft 485 kts 66°
2026-05-01 09:48 52.81730 -54.44686 34338 ft 486 kts 66°
2026-05-01 09:49 52.84671 -54.34609 34344 ft 487 kts 66°
2026-05-01 09:49 52.87612 -54.24488 34343 ft 488 kts 66°
2026-05-01 09:50 52.90548 -54.14340 34337 ft 489 kts 66°
2026-05-01 09:50 52.93479 -54.04164 34350 ft 490 kts 66°
2026-05-01 09:51 52.96406 -53.93959 34354 ft 490 kts 66°
2026-05-01 09:51 52.99325 -53.83738 34353 ft 490 kts 66°
2026-05-01 09:52 53.02236 -53.73500 34361 ft 490 kts 66°
2026-05-01 09:52 53.05116 -53.63328 34360 ft 489 kts 67°
2026-05-01 09:53 53.08003 -53.53085 34366 ft 489 kts 67°
2026-05-01 09:53 53.10881 -53.42832 34362 ft 489 kts 67°
2026-05-01 09:54 53.13753 -53.32549 34369 ft 490 kts 67°
2026-05-01 09:54 53.16623 -53.22227 34365 ft 491 kts 67°
2026-05-01 09:55 53.19490 -53.11873 34378 ft 492 kts 67°
2026-05-01 09:55 53.22356 -53.01478 34378 ft 493 kts 67°
2026-05-01 09:56 53.25218 -52.91052 34378 ft 494 kts 68°
2026-05-01 09:56 53.28070 -52.80615 34387 ft 494 kts 68°
2026-05-01 09:57 53.30913 -52.70160 34383 ft 494 kts 68°
2026-05-01 09:57 53.33747 -52.59690 34388 ft 494 kts 68°
2026-05-01 09:58 53.36572 -52.49211 34388 ft 494 kts 68°
2026-05-01 09:58 53.39388 -52.38711 34386 ft 494 kts 68°
2026-05-01 09:59 53.42189 -52.28223 34395 ft 493 kts 68°
2026-05-01 09:59 53.44975 -52.17739 34393 ft 491 kts 68°
2026-05-01 10:00 53.46099 -52.12360 34388 ft 487 kts 81°
2026-05-01 10:00 53.46533 -52.06785 34410 ft 480 kts 85°
2026-05-01 10:00 53.47169 -52.01263 34392 ft 485 kts 73°
2026-05-01 10:00 53.48432 -51.95999 34421 ft 488 kts 67°
2026-05-01 10:01 53.51371 -51.85672 34415 ft 492 kts 66°
2026-05-01 10:01 53.54284 -51.75228 34422 ft 494 kts 67°
2026-05-01 10:02 53.57085 -51.64633 34419 ft 496 kts 68°
2026-05-01 10:02 53.59837 -51.53960 34414 ft 497 kts 68°
2026-05-01 10:03 53.62577 -51.43271 34418 ft 497 kts 68°
2026-05-01 10:03 53.65311 -51.32583 34416 ft 496 kts 68°
2026-05-01 10:04 53.68026 -51.21935 34415 ft 493 kts 68°
2026-05-01 10:04 53.70719 -51.11324 34421 ft 491 kts 68°
2026-05-01 10:05 53.73391 -51.00746 34430 ft 489 kts 68°
2026-05-01 10:05 53.76046 -50.90182 34428 ft 488 kts 69°
2026-05-01 10:06 53.78674 -50.79676 34429 ft 488 kts 69°
2026-05-01 10:06 53.81310 -50.69087 34420 ft 489 kts 69°
2026-05-01 10:07 53.83940 -50.58468 34436 ft 490 kts 69°
2026-05-01 10:07 53.86570 -50.47802 34449 ft 491 kts 69°
2026-05-01 10:08 53.90508 -50.31734 34433 ft 493 kts 69°
2026-05-01 10:09 53.93125 -50.20988 34437 ft 493 kts 69°
2026-05-01 10:09 53.95738 -50.10209 34453 ft 494 kts 69°
2026-05-01 10:10 53.98339 -49.99422 34433 ft 493 kts 69°
2026-05-01 10:10 54.01122 -49.82743 34450 ft 488 kts 80°
2026-05-01 10:11 54.02494 -49.71433 34449 ft 488 kts 79°
2026-05-01 10:11 54.03969 -49.60163 34442 ft 488 kts 78°
2026-05-01 10:12 54.05261 -49.50821 34446 ft 488 kts 78°
2026-05-01 10:13 54.07891 -49.32045 34459 ft 489 kts 78°
2026-05-01 10:13 54.09450 -49.20775 34454 ft 489 kts 78°
2026-05-01 10:14 54.11763 -49.03840 34454 ft 490 kts 78°
2026-05-01 10:14 54.13295 -48.92505 34460 ft 490 kts 78°
2026-05-01 10:15 54.14819 -48.81150 34458 ft 491 kts 78°
2026-05-01 10:15 54.16325 -48.69841 34461 ft 492 kts 79°
2026-05-01 10:16 54.17831 -48.58440 34470 ft 492 kts 79°
2026-05-01 10:17 54.20071 -48.41318 34465 ft 493 kts 79°
2026-05-01 10:17 54.22287 -48.24183 34472 ft 492 kts 79°
2026-05-01 10:18 54.24470 -48.07091 34469 ft 489 kts 79°
2026-05-01 10:19 54.25904 -47.95748 34467 ft 487 kts 79°
2026-05-01 10:19 54.27322 -47.84443 34481 ft 486 kts 79°
2026-05-01 10:20 54.29420 -47.67532 34481 ft 487 kts 79°
2026-05-01 10:20 54.30817 -47.56160 34480 ft 489 kts 79°
2026-05-01 10:21 54.32678 -47.40864 34481 ft 491 kts 80°
2026-05-01 10:22 54.34739 -47.23721 34482 ft 492 kts 80°
2026-05-01 10:23 54.36781 -47.06518 34478 ft 490 kts 80°
2026-05-01 10:23 54.38790 -46.89364 34482 ft 488 kts 80°
2026-05-01 10:24 54.41423 -46.66537 34487 ft 487 kts 80°
2026-05-01 10:25 54.44013 -46.43677 34488 ft 489 kts 81°
2026-05-01 10:26 54.45297 -46.32187 34488 ft 490 kts 81°
2026-05-01 10:27 54.47834 -46.09182 34487 ft 490 kts 81°
2026-05-01 10:28 54.49698 -45.92001 34486 ft 489 kts 81°
2026-05-01 10:28 54.51546 -45.74721 34495 ft 490 kts 81°
2026-05-01 10:29 54.53370 -45.57421 34493 ft 490 kts 81°
2026-05-01 10:30 54.55767 -45.34304 34483 ft 490 kts 82°
2026-05-01 10:31 54.58122 -45.11127 34497 ft 491 kts 82°
2026-05-01 10:32 54.59862 -44.93699 34493 ft 492 kts 82°
2026-05-01 10:33 54.62146 -44.70416 34491 ft 493 kts 82°
2026-05-01 10:34 54.63834 -44.52891 34498 ft 494 kts 82°
2026-05-01 10:34 54.64948 -44.41173 34487 ft 495 kts 83°
2026-05-01 10:35 54.66599 -44.23569 34500 ft 494 kts 83°
2026-05-01 10:35 54.67683 -44.11844 34487 ft 494 kts 83°
2026-05-01 10:36 54.69287 -43.94259 34503 ft 494 kts 83°
2026-05-01 10:37 54.70338 -43.82584 34503 ft 495 kts 83°
2026-05-01 10:37 54.71903 -43.64936 34493 ft 495 kts 83°
2026-05-01 10:38 54.72934 -43.53144 34499 ft 496 kts 83°
2026-05-01 10:38 54.73955 -43.41329 34481 ft 496 kts 83°
2026-05-01 10:39 54.74966 -43.29500 34497 ft 497 kts 83°
2026-05-01 10:39 54.75965 -43.17657 34495 ft 497 kts 83°
2026-05-01 10:40 54.76954 -43.05798 34487 ft 497 kts 83°
2026-05-01 10:40 54.77930 -42.93940 34495 ft 497 kts 84°
2026-05-01 10:41 54.78895 -42.82076 34498 ft 498 kts 84°
2026-05-01 10:42 54.80326 -42.64214 34500 ft 500 kts 84°
2026-05-01 10:42 54.81260 -42.52352 34496 ft 501 kts 84°
2026-05-01 10:43 54.82192 -42.40380 34494 ft 501 kts 84°
2026-05-01 10:43 54.83111 -42.28407 34490 ft 500 kts 84°
2026-05-01 10:44 54.84017 -42.16444 34494 ft 499 kts 84°
2026-05-01 10:44 54.84909 -42.04509 34490 ft 498 kts 84°
2026-05-01 10:45 54.85788 -41.92585 34490 ft 498 kts 84°
2026-05-01 10:45 54.86655 -41.80673 34485 ft 497 kts 84°
2026-05-01 10:46 54.87509 -41.68759 34484 ft 497 kts 84°
2026-05-01 10:46 54.88350 -41.56853 34494 ft 497 kts 85°
2026-05-01 10:47 54.89182 -41.44920 34492 ft 497 kts 85°
2026-05-01 10:47 54.89997 -41.33056 34495 ft 498 kts 85°
2026-05-01 10:48 54.90805 -41.21109 34495 ft 498 kts 85°
2026-05-01 10:48 54.91603 -41.09145 34491 ft 498 kts 85°
2026-05-01 10:49 54.92389 -40.97172 34491 ft 498 kts 85°
2026-05-01 10:49 54.93164 -40.85190 34479 ft 499 kts 85°
2026-05-01 10:50 54.93928 -40.73178 34496 ft 500 kts 85°
2026-05-01 10:50 54.94682 -40.61146 34496 ft 501 kts 85°
2026-05-01 10:51 54.95425 -40.49096 34483 ft 501 kts 85°
2026-05-01 10:51 54.96156 -40.37037 34491 ft 501 kts 85°
2026-05-01 10:52 54.96875 -40.24971 34479 ft 501 kts 85°
2026-05-01 10:52 54.97583 -40.12880 34489 ft 502 kts 85°
2026-05-01 10:53 54.98278 -40.00864 34482 ft 503 kts 86°
2026-05-01 10:53 54.98856 -39.88737 34482 ft 503 kts 88°
2026-05-01 10:54 54.99305 -39.76583 34481 ft 503 kts 88°
2026-05-01 10:54 54.99744 -39.64423 34479 ft 503 kts 88°
2026-05-01 10:55 55.00192 -39.52242 34479 ft 505 kts 88°
2026-05-01 10:55 55.00641 -39.40029 34485 ft 506 kts 88°
2026-05-01 10:56 55.01080 -39.27774 34478 ft 507 kts 88°
2026-05-01 10:56 55.01506 -39.15504 34477 ft 508 kts 88°
2026-05-01 10:57 55.01919 -39.03209 34482 ft 508 kts 88°
2026-05-01 10:57 55.02320 -38.90899 34472 ft 509 kts 88°
2026-05-01 10:58 55.02710 -38.78577 34476 ft 510 kts 88°
2026-05-01 10:58 55.03087 -38.66230 34483 ft 510 kts 88°
2026-05-01 10:59 55.03452 -38.53869 34473 ft 510 kts 88°
2026-05-01 10:59 55.03805 -38.41524 34462 ft 510 kts 88°
2026-05-01 11:00 55.04145 -38.29176 34495 ft 509 kts 88°
2026-05-01 11:00 55.04472 -38.16816 34475 ft 511 kts 88°
2026-05-01 11:01 55.04788 -38.04424 34480 ft 512 kts 88°
2026-05-01 11:01 55.05091 -37.92009 34485 ft 513 kts 88°
2026-05-01 11:02 55.05383 -37.79570 34479 ft 514 kts 88°
2026-05-01 11:02 55.05660 -37.67201 34469 ft 514 kts 89°
2026-05-01 11:03 55.05926 -37.54737 34464 ft 514 kts 88°
2026-05-01 11:03 55.06181 -37.42265 34485 ft 514 kts 88°
2026-05-01 11:04 55.06423 -37.29799 34467 ft 514 kts 88°
2026-05-01 11:04 55.06651 -37.17328 34465 ft 514 kts 89°
2026-05-01 11:05 55.06867 -37.04857 34475 ft 514 kts 89°
2026-05-01 11:05 55.07070 -36.92374 34489 ft 514 kts 89°
2026-05-01 11:06 55.07260 -36.79889 34457 ft 515 kts 89°
2026-05-01 11:06 55.07438 -36.67380 34473 ft 516 kts 88°
2026-05-01 11:07 55.07681 -36.48593 34475 ft 516 kts 89°
2026-05-01 11:07 55.07827 -36.36075 34475 ft 516 kts 89°
2026-05-01 11:08 55.07939 -36.25673 34472 ft 516 kts 89°
2026-05-01 11:09 55.08118 -36.06851 34487 ft 519 kts 89°
2026-05-01 11:09 55.08172 -36.00531 34661 ft 521 kts 89°
2026-05-01 11:09 55.08222 -35.94214 35004 ft 520 kts 89°
2026-05-01 11:10 55.08313 -35.81630 35472 ft 520 kts 89°
2026-05-01 11:10 55.08354 -35.75308 35461 ft 520 kts 89°
2026-05-01 11:10 55.08424 -35.62776 35448 ft 512 kts 89°
2026-05-01 11:11 55.08482 -35.50382 35462 ft 510 kts 89°
2026-05-01 11:11 55.08526 -35.38001 35460 ft 510 kts 89°
2026-05-01 11:12 55.08559 -35.25613 35471 ft 511 kts 89°
2026-05-01 11:12 55.08579 -35.13198 35464 ft 512 kts 89°
2026-05-01 11:13 55.08586 -35.00771 35470 ft 512 kts 89°
2026-05-01 11:13 55.08580 -34.88317 35461 ft 514 kts 89°
2026-05-01 11:14 55.08562 -34.75920 35455 ft 515 kts 89°
2026-05-01 11:14 55.08531 -34.63425 35457 ft 515 kts 89°
2026-05-01 11:15 55.08487 -34.50927 35463 ft 515 kts 89°
2026-05-01 11:15 55.08430 -34.38435 35452 ft 515 kts 90°
2026-05-01 11:16 55.08361 -34.25947 35467 ft 514 kts 89°
2026-05-01 11:16 55.08279 -34.13450 35458 ft 515 kts 90°
2026-05-01 11:17 55.08184 -34.00948 35458 ft 515 kts 90°
2026-05-01 11:17 55.08076 -33.88433 35455 ft 516 kts 90°
2026-05-01 11:18 55.07955 -33.75921 35445 ft 515 kts 90°
2026-05-01 11:18 55.07821 -33.63445 35456 ft 514 kts 90°
2026-05-01 11:19 55.07675 -33.50980 35455 ft 514 kts 90°
2026-05-01 11:19 55.07517 -33.38503 35454 ft 514 kts 90°
2026-05-01 11:20 55.07346 -33.26042 35448 ft 514 kts 90°
2026-05-01 11:20 55.07162 -33.13588 35454 ft 514 kts 90°
2026-05-01 11:21 55.06965 -33.01125 35445 ft 514 kts 90°
2026-05-01 11:21 55.06755 -32.88655 35451 ft 515 kts 90°
2026-05-01 11:22 55.06534 -32.76254 35454 ft 515 kts 90°
2026-05-01 11:22 55.06299 -32.63767 35447 ft 515 kts 90°
2026-05-01 11:23 55.06051 -32.51287 35441 ft 515 kts 90°
2026-05-01 11:23 55.05790 -32.38806 35441 ft 515 kts 90°
2026-05-01 11:24 55.05516 -32.26326 35454 ft 515 kts 90°
2026-05-01 11:25 55.05081 -32.07596 35441 ft 515 kts 90°
2026-05-01 11:25 55.04617 -31.88848 35435 ft 516 kts 90°
2026-05-01 11:26 55.04125 -31.70126 35435 ft 515 kts 90°
2026-05-01 11:27 55.03781 -31.57666 35445 ft 514 kts 90°
2026-05-01 11:27 55.03425 -31.45206 35430 ft 514 kts 90°
2026-05-01 11:28 55.03056 -31.32746 35437 ft 514 kts 91°
2026-05-01 11:28 55.02677 -31.20380 35430 ft 514 kts 91°
2026-05-01 11:29 55.02080 -31.01696 35429 ft 515 kts 91°
2026-05-01 11:30 55.01454 -30.83018 35428 ft 515 kts 91°
2026-05-01 11:30 55.01022 -30.70559 35426 ft 515 kts 91°
2026-05-01 11:31 55.00576 -30.58115 35429 ft 514 kts 91°
2026-05-01 11:31 55.00119 -30.45677 35424 ft 514 kts 91°
2026-05-01 11:32 54.99648 -30.33250 35420 ft 514 kts 91°
2026-05-01 11:32 54.99165 -30.20822 35418 ft 515 kts 91°
2026-05-01 11:33 54.98671 -30.08381 35415 ft 515 kts 91°
2026-05-01 11:33 54.98143 -29.95942 35415 ft 516 kts 92°
2026-05-01 11:34 54.97434 -29.83506 35413 ft 517 kts 93°
2026-05-01 11:34 54.96660 -29.71074 35413 ft 517 kts 94°
2026-05-01 11:35 54.95896 -29.58716 35423 ft 517 kts 93°
2026-05-01 11:35 54.95132 -29.46255 35419 ft 518 kts 93°
2026-05-01 11:36 54.94362 -29.33798 35405 ft 518 kts 93°
2026-05-01 11:36 54.93578 -29.21329 35405 ft 518 kts 93°
2026-05-01 11:37 54.92779 -29.08866 35402 ft 518 kts 93°
2026-05-01 11:37 54.91969 -28.96442 35401 ft 517 kts 93°
2026-05-01 11:38 54.91148 -28.84052 35401 ft 515 kts 94°
2026-05-01 11:38 54.90317 -28.71698 35403 ft 514 kts 94°
2026-05-01 11:39 54.89475 -28.59369 35406 ft 513 kts 94°
2026-05-01 11:39 54.88622 -28.47062 35405 ft 513 kts 94°
2026-05-01 11:40 54.87756 -28.34758 35409 ft 513 kts 94°
2026-05-01 11:40 54.86878 -28.22459 35405 ft 514 kts 94°
2026-05-01 11:41 54.85986 -28.10155 35398 ft 513 kts 94°
2026-05-01 11:41 54.85088 -27.97944 35390 ft 513 kts 94°
2026-05-01 11:42 54.84167 -27.85593 35387 ft 513 kts 94°
2026-05-01 11:42 54.83247 -27.73416 35384 ft 512 kts 94°
2026-05-01 11:43 54.82309 -27.61174 35395 ft 512 kts 94°
2026-05-01 11:43 54.81358 -27.48938 35391 ft 512 kts 94°
2026-05-01 11:44 54.79910 -27.30591 35387 ft 512 kts 94°
2026-05-01 11:44 54.78929 -27.18382 35381 ft 511 kts 94°
2026-05-01 11:45 54.77939 -27.06209 35377 ft 510 kts 94°
2026-05-01 11:45 54.76939 -26.94067 35394 ft 509 kts 94°
2026-05-01 11:46 54.75928 -26.81943 35381 ft 508 kts 95°
2026-05-01 11:46 54.74906 -26.69837 35371 ft 508 kts 95°
2026-05-01 11:47 54.73872 -26.57734 35377 ft 508 kts 95°
2026-05-01 11:47 54.72825 -26.45638 35369 ft 508 kts 95°
2026-05-01 11:48 54.71768 -26.33559 35367 ft 507 kts 95°
2026-05-01 11:48 54.70700 -26.21509 35383 ft 507 kts 95°
2026-05-01 11:49 54.69622 -26.09481 35359 ft 506 kts 95°
2026-05-01 11:49 54.69073 -26.03375 34360 ft 522 kts 95°
2026-05-01 11:49 54.68531 -25.97259 34311 ft 505 kts 94°
2026-05-01 11:50 54.68007 -25.91299 34471 ft 498 kts 94°
2026-05-01 11:50 54.67475 -25.85391 34740 ft 498 kts 95°
2026-05-01 11:50 54.66919 -25.79463 34982 ft 499 kts 95°
2026-05-01 11:50 54.66361 -25.73613 35152 ft 502 kts 95°
2026-05-01 11:51 54.65216 -25.61631 35317 ft 509 kts 96°
2026-05-01 11:51 54.64064 -25.49553 35356 ft 510 kts 96°
2026-05-01 11:52 54.62904 -25.37469 35353 ft 509 kts 96°
2026-05-01 11:52 54.61740 -25.25451 35342 ft 507 kts 96°
2026-05-01 11:53 54.60569 -25.13495 35347 ft 504 kts 96°
2026-05-01 11:53 54.59392 -25.01604 35343 ft 502 kts 96°
2026-05-01 11:54 54.58208 -24.89762 35357 ft 501 kts 96°
2026-05-01 11:54 54.57013 -24.77939 35341 ft 500 kts 96°
2026-05-01 11:55 54.55808 -24.66132 35339 ft 500 kts 97°
2026-05-01 11:55 54.54799 -24.56336 35337 ft 500 kts 97°
2026-05-01 11:56 54.53574 -24.44554 35333 ft 499 kts 97°
2026-05-01 11:56 54.52338 -24.32792 35334 ft 499 kts 97°
2026-05-01 11:57 54.51091 -24.21033 35340 ft 500 kts 97°
2026-05-01 11:57 54.49832 -24.09267 35334 ft 500 kts 97°
2026-05-01 11:58 54.48559 -23.97496 35326 ft 501 kts 97°
2026-05-01 11:59 54.46627 -23.79844 35331 ft 501 kts 98°
2026-05-01 11:59 54.45326 -23.68098 35324 ft 500 kts 98°
2026-05-01 12:00 54.43365 -23.50598 35321 ft 499 kts 98°
2026-05-01 12:01 54.41373 -23.33056 35327 ft 499 kts 98°
2026-05-01 12:01 54.40031 -23.21374 35316 ft 499 kts 98°
2026-05-01 12:02 54.38677 -23.09688 35318 ft 499 kts 98°
2026-05-01 12:02 54.37312 -22.98018 35333 ft 499 kts 98°
2026-05-01 12:03 54.35935 -22.86352 35312 ft 499 kts 98°
2026-05-01 12:03 54.34546 -22.74690 35313 ft 499 kts 98°
2026-05-01 12:04 54.33148 -22.63050 35310 ft 498 kts 98°
2026-05-01 12:04 54.31740 -22.51428 35310 ft 498 kts 98°
2026-05-01 12:05 54.30323 -22.39830 35307 ft 498 kts 98°
2026-05-01 12:05 54.28176 -22.22442 35305 ft 498 kts 99°
2026-05-01 12:06 54.26731 -22.10862 35304 ft 498 kts 99°
2026-05-01 12:06 54.25275 -21.99288 35307 ft 497 kts 99°
2026-05-01 12:07 54.23820 -21.87823 35305 ft 496 kts 99°
2026-05-01 12:07 54.22346 -21.76307 35307 ft 495 kts 99°
2026-05-01 12:08 54.20863 -21.64804 35310 ft 496 kts 99°
2026-05-01 12:08 54.19368 -21.53302 35304 ft 496 kts 99°
2026-05-01 12:09 54.17860 -21.41795 35296 ft 497 kts 99°
2026-05-01 12:09 54.16338 -21.30276 35300 ft 497 kts 99°
2026-05-01 12:10 54.14035 -21.13010 35293 ft 498 kts 99°
2026-05-01 12:11 54.11702 -20.95729 35301 ft 499 kts 99°
2026-05-01 12:11 54.10130 -20.84202 35290 ft 500 kts 99°
2026-05-01 12:12 54.08546 -20.72668 35289 ft 500 kts 99°
2026-05-01 12:12 54.06949 -20.61138 35288 ft 500 kts 99°
2026-05-01 12:13 54.05342 -20.49614 35287 ft 500 kts 99°
2026-05-01 12:13 54.03722 -20.38093 35301 ft 501 kts 99°
2026-05-01 12:14 54.02091 -20.26571 35286 ft 501 kts 99°
2026-05-01 12:14 54.00449 -20.15060 35275 ft 501 kts 99°
2026-05-01 12:15 53.98798 -20.03560 35276 ft 500 kts 99°
2026-05-01 12:15 53.97014 -19.92128 35271 ft 502 kts 102°
2026-05-01 12:16 53.94977 -19.80863 35281 ft 502 kts 103°
2026-05-01 12:16 53.92902 -19.69547 35278 ft 502 kts 103°
2026-05-01 12:17 53.90856 -19.58223 35273 ft 501 kts 102°
2026-05-01 12:17 53.88828 -19.46927 35263 ft 501 kts 102°
2026-05-01 12:18 53.86794 -19.35651 35250 ft 499 kts 102°
2026-05-01 12:18 53.84754 -19.24413 35256 ft 499 kts 102°
2026-05-01 12:19 53.82703 -19.13195 35271 ft 498 kts 103°
2026-05-01 12:19 53.80642 -19.01994 35252 ft 498 kts 103°
2026-05-01 12:20 53.78572 -18.90813 35247 ft 498 kts 103°
2026-05-01 12:20 53.76490 -18.79635 35260 ft 498 kts 103°
2026-05-01 12:21 53.74400 -18.68480 35254 ft 498 kts 103°
2026-05-01 12:21 53.72314 -18.57409 35241 ft 498 kts 103°
2026-05-01 12:22 53.70206 -18.46285 35249 ft 497 kts 103°
2026-05-01 12:22 53.68090 -18.35192 35238 ft 496 kts 103°
2026-05-01 12:23 53.65967 -18.24125 35236 ft 496 kts 103°
2026-05-01 12:23 53.63837 -18.13082 35233 ft 495 kts 103°
2026-05-01 12:24 53.61699 -18.02062 35241 ft 495 kts 103°
2026-05-01 12:24 53.59554 -17.91070 35229 ft 494 kts 103°
2026-05-01 12:25 53.56327 -17.74649 35221 ft 492 kts 104°
2026-05-01 12:26 53.54169 -17.63747 35211 ft 490 kts 104°
2026-05-01 12:26 53.50926 -17.47476 35215 ft 489 kts 104°
2026-05-01 12:27 53.47664 -17.31243 35222 ft 489 kts 104°
2026-05-01 12:28 53.44373 -17.14994 35208 ft 491 kts 104°
2026-05-01 12:29 53.41068 -16.98819 35200 ft 491 kts 104°
2026-05-01 12:29 53.37724 -16.82589 35194 ft 491 kts 104°
2026-05-01 12:30 53.34356 -16.66370 35193 ft 492 kts 104°
2026-05-01 12:31 53.32099 -16.55567 35190 ft 492 kts 105°
2026-05-01 12:31 53.29827 -16.44760 35180 ft 492 kts 105°
2026-05-01 12:32 53.27547 -16.33974 35173 ft 491 kts 105°
2026-05-01 12:32 53.24117 -16.17850 35165 ft 491 kts 106°
2026-05-01 12:33 53.21822 -16.07131 35159 ft 490 kts 106°
2026-05-01 12:33 53.19533 -15.96496 35160 ft 490 kts 106°
2026-05-01 12:34 53.17219 -15.85800 35158 ft 490 kts 107°
2026-05-01 12:34 53.14895 -15.75113 35148 ft 491 kts 107°
2026-05-01 12:35 53.12561 -15.64437 35148 ft 490 kts 106°
2026-05-01 12:35 53.10219 -15.53778 35143 ft 490 kts 107°
2026-05-01 12:36 53.07866 -15.43128 35148 ft 491 kts 106°
2026-05-01 12:36 53.05501 -15.32471 35136 ft 490 kts 108°
2026-05-01 12:37 53.03131 -15.21849 35127 ft 490 kts 107°
2026-05-01 12:37 53.00754 -15.11239 35126 ft 490 kts 108°
2026-05-01 12:38 52.98864 -15.00443 35122 ft 485 kts 97°
2026-05-01 12:38 52.98257 -14.89378 35099 ft 480 kts 88°
2026-05-01 12:39 52.98331 -14.78318 35118 ft 480 kts 87°
2026-05-01 12:39 52.98403 -14.67215 35099 ft 482 kts 88°
2026-05-01 12:40 52.98430 -14.56075 35095 ft 483 kts 88°
2026-05-01 12:40 52.98430 -14.44921 35085 ft 484 kts 88°
2026-05-01 12:41 52.98419 -14.33761 35078 ft 483 kts 88°
2026-05-01 12:41 52.98403 -14.22672 35071 ft 484 kts 89°
2026-05-01 12:42 52.98375 -14.11499 35063 ft 484 kts 90°
2026-05-01 12:42 52.98300 -14.00314 35057 ft 484 kts 92°
2026-05-01 12:43 52.97497 -13.89234 35059 ft 483 kts 97°
2026-05-01 12:43 52.96680 -13.80070 35070 ft 483 kts 98°
2026-05-01 12:44 52.95705 -13.69041 35048 ft 483 kts 98°
2026-05-01 12:45 52.93777 -13.46929 35049 ft 485 kts 98°
2026-05-01 12:45 52.92803 -13.35860 35053 ft 486 kts 98°
2026-05-01 12:46 52.91816 -13.24775 35041 ft 487 kts 99°
2026-05-01 12:46 52.90818 -13.13680 35055 ft 487 kts 99°
2026-05-01 12:47 52.89806 -13.02588 35048 ft 487 kts 100°
2026-05-01 12:47 52.88792 -12.91575 35048 ft 487 kts 100°
2026-05-01 12:48 52.87763 -12.80509 35043 ft 486 kts 100°
2026-05-01 12:48 52.86724 -12.69459 35050 ft 485 kts 101°
2026-05-01 12:49 52.85679 -12.58447 35045 ft 484 kts 101°
2026-05-01 12:49 52.84626 -12.47477 35044 ft 482 kts 101°
2026-05-01 12:50 52.83567 -12.36546 35048 ft 481 kts 101°
2026-05-01 12:50 52.82499 -12.25639 35061 ft 480 kts 101°
2026-05-01 12:51 52.81423 -12.14750 35037 ft 480 kts 102°
2026-05-01 12:52 52.79793 -11.98457 35069 ft 479 kts 102°
2026-05-01 12:52 52.78140 -11.82176 35065 ft 479 kts 102°
2026-05-01 12:53 52.76465 -11.65907 35065 ft 479 kts 102°
2026-05-01 12:54 52.75337 -11.55065 35056 ft 479 kts 103°
2026-05-01 12:54 52.73633 -11.38899 35071 ft 479 kts 103°
2026-05-01 12:55 52.71900 -11.22670 35075 ft 479 kts 103°
2026-05-01 12:56 52.70730 -11.11837 35071 ft 480 kts 103°
2026-05-01 12:56 52.69552 -11.01010 35070 ft 479 kts 104°
2026-05-01 12:57 52.68363 -10.90202 35076 ft 479 kts 104°
2026-05-01 12:57 52.66562 -10.74010 35080 ft 479 kts 104°
2026-05-01 12:58 52.65352 -10.63233 35086 ft 478 kts 104°
2026-05-01 12:59 52.63517 -10.47078 35087 ft 478 kts 104°
2026-05-01 12:59 52.61663 -10.30963 35087 ft 478 kts 105°
2026-05-01 13:00 52.59787 -10.14867 35091 ft 477 kts 105°
2026-05-01 13:01 52.57901 -9.98863 35106 ft 477 kts 105°
2026-05-01 13:02 52.55973 -9.82737 35087 ft 478 kts 105°
2026-05-01 13:07 52.42172 -8.72445 35083 ft 465 kts 107°
2026-05-01 13:07 52.41496 -8.67263 35087 ft 465 kts 107°
2026-05-01 13:08 52.40138 -8.56913 35093 ft 465 kts 108°
2026-05-01 13:08 52.38771 -8.46568 35099 ft 465 kts 108°
2026-05-01 13:09 52.37395 -8.36235 35084 ft 464 kts 108°
2026-05-01 13:09 52.36013 -8.25914 35107 ft 464 kts 108°
2026-05-01 13:10 52.34623 -8.15621 35109 ft 464 kts 108°
2026-05-01 13:10 52.33224 -8.05324 35118 ft 464 kts 108°
2026-05-01 13:11 52.31814 -7.95021 35161 ft 466 kts 108°
2026-05-01 13:11 52.30385 -7.84719 35094 ft 460 kts 109°
2026-05-01 13:12 52.28986 -7.74566 35110 ft 459 kts 109°
2026-05-01 13:12 52.27566 -7.64402 35125 ft 460 kts 109°
2026-05-01 13:13 52.26141 -7.54291 35129 ft 461 kts 109°
2026-05-01 13:13 52.24695 -7.44085 35145 ft 462 kts 109°
2026-05-01 13:14 52.23238 -7.33879 35144 ft 462 kts 109°
2026-05-01 13:14 52.21772 -7.23665 35156 ft 462 kts 109°
2026-05-01 13:15 52.20300 -7.13472 35158 ft 462 kts 109°
2026-05-01 13:15 52.18818 -7.03285 35156 ft 462 kts 109°
2026-05-01 13:16 52.17329 -6.93117 35156 ft 461 kts 109°
2026-05-01 13:16 52.15835 -6.82973 35150 ft 460 kts 109°
2026-05-01 13:17 52.12826 -6.62756 35160 ft 459 kts 109°
2026-05-01 13:18 52.10559 -6.47694 35169 ft 459 kts 110°
2026-05-01 13:18 52.09030 -6.37610 35125 ft 459 kts 110°
2026-05-01 13:19 52.07492 -6.27532 35159 ft 460 kts 110°
2026-05-01 13:20 52.05162 -6.12369 35165 ft 461 kts 110°
2026-05-01 13:20 52.03583 -6.02249 35173 ft 462 kts 110°
2026-05-01 13:21 52.01001 -5.87190 35138 ft 462 kts 111°
2026-05-01 13:21 51.99255 -5.77159 35164 ft 462 kts 111°
2026-05-01 13:22 51.97510 -5.67103 35178 ft 463 kts 111°
2026-05-01 13:22 51.95759 -5.57038 35181 ft 464 kts 111°
2026-05-01 13:23 51.93997 -5.46965 35179 ft 465 kts 111°
2026-05-01 13:23 51.92235 -5.36948 35172 ft 465 kts 111°
2026-05-01 13:24 51.90455 -5.26877 35179 ft 465 kts 111°
2026-05-01 13:25 51.88405 -5.11444 35185 ft 469 kts 106°
2026-05-01 13:25 51.87215 -5.01067 35179 ft 469 kts 106°
2026-05-01 13:26 51.86000 -4.90707 35189 ft 469 kts 106°
2026-05-01 13:26 51.84763 -4.80362 35177 ft 469 kts 106°
2026-05-01 13:27 51.83513 -4.70008 35180 ft 469 kts 106°
2026-05-01 13:27 51.81622 -4.54479 35184 ft 470 kts 106°
2026-05-01 13:28 51.79706 -4.38924 35184 ft 471 kts 107°
2026-05-01 13:29 51.77125 -4.18241 35194 ft 472 kts 106°
2026-05-01 13:31 51.73164 -3.87068 35171 ft 473 kts 106°
2026-05-01 13:32 51.69858 -3.61051 35191 ft 475 kts 106°
2026-05-01 13:33 51.68101 -3.36230 35164 ft 480 kts 98°
2026-05-01 13:34 51.66837 -3.14768 35164 ft 481 kts 99°
2026-05-01 13:35 51.65840 -2.98690 35160 ft 481 kts 99°
2026-05-01 13:36 51.64822 -2.82628 35149 ft 481 kts 99°
2026-05-01 13:36 51.63784 -2.66545 35166 ft 482 kts 99°
2026-05-01 13:37 51.63084 -2.55894 35174 ft 481 kts 99°
2026-05-01 13:37 51.62372 -2.45190 35165 ft 481 kts 99°
2026-05-01 13:38 51.61294 -2.29165 35159 ft 480 kts 99°
2026-05-01 13:39 51.60572 -2.18500 35159 ft 478 kts 98°
2026-05-01 13:39 51.60794 -2.07796 35163 ft 481 kts 89°
2026-05-01 13:40 51.60779 -1.97063 35159 ft 479 kts 97°
2026-05-01 13:40 51.60066 -1.86404 35151 ft 479 kts 100°
2026-05-01 13:41 51.59051 -1.75819 35149 ft 479 kts 102°
2026-05-01 13:41 51.57884 -1.65254 35148 ft 480 kts 103°
2026-05-01 13:42 51.56719 -1.54693 35137 ft 480 kts 103°
2026-05-01 13:42 51.55572 -1.44115 35120 ft 480 kts 102°
2026-05-01 13:43 51.54432 -1.33560 35122 ft 479 kts 102°
2026-05-01 13:43 51.53293 -1.23104 35131 ft 478 kts 102°
2026-05-01 13:44 51.52138 -1.12613 35132 ft 477 kts 102°
2026-05-01 13:44 51.50976 -1.02151 35129 ft 476 kts 103°
2026-05-01 13:45 51.49804 -0.91692 35130 ft 475 kts 103°
2026-05-01 13:45 51.48624 -0.81241 35149 ft 475 kts 103°
2026-05-01 13:46 51.47437 -0.70825 35148 ft 475 kts 103°
2026-05-01 13:46 51.46241 -0.60413 35160 ft 475 kts 103°
2026-05-01 13:47 51.45037 -0.50014 35158 ft 475 kts 103°
2026-05-01 13:47 51.43822 -0.39613 35157 ft 475 kts 103°
2026-05-01 13:48 51.42605 -0.29272 35160 ft 475 kts 103°
2026-05-01 13:48 51.41363 -0.18801 35155 ft 475 kts 103°
2026-05-01 13:49 51.40127 -0.08470 35153 ft 475 kts 103°
2026-05-01 13:49 51.38875 0.01921 35165 ft 475 kts 104°
2026-05-01 13:50 51.37615 0.12297 35185 ft 475 kts 104°
2026-05-01 13:50 51.36347 0.22655 35182 ft 474 kts 104°
2026-05-01 13:51 51.35069 0.33011 35178 ft 474 kts 104°
2026-05-01 13:51 51.33784 0.43338 35172 ft 474 kts 104°
2026-05-01 13:52 51.32493 0.53658 35098 ft 473 kts 104°
2026-05-01 13:52 51.31193 0.63955 35112 ft 472 kts 104°
2026-05-01 13:53 51.29886 0.74224 35133 ft 471 kts 104°
2026-05-01 13:53 51.27914 0.89583 35167 ft 470 kts 104°
2026-05-01 13:54 51.26589 0.99812 35186 ft 470 kts 105°
2026-05-01 13:54 51.25255 1.10036 35189 ft 470 kts 105°
2026-05-01 13:55 51.23912 1.20250 35200 ft 470 kts 105°
2026-05-01 13:55 51.22567 1.30408 35197 ft 471 kts 105°
2026-05-01 13:56 51.21204 1.40632 35198 ft 471 kts 105°
2026-05-01 13:56 51.19833 1.50845 35196 ft 471 kts 105°
2026-05-01 13:57 51.18453 1.61056 35200 ft 472 kts 105°
2026-05-01 13:57 51.17061 1.71273 35199 ft 472 kts 105°
2026-05-01 13:58 51.15661 1.81489 35199 ft 472 kts 105°
2026-05-01 13:58 51.14252 1.91708 35188 ft 472 kts 105°
2026-05-01 13:59 51.12947 2.01963 35203 ft 474 kts 100°
2026-05-01 13:59 51.12381 2.12454 35205 ft 476 kts 97°
2026-05-01 14:00 51.11861 2.22967 35203 ft 477 kts 97°
2026-05-01 14:00 51.11298 2.33487 35191 ft 477 kts 98°
2026-05-01 14:01 51.10710 2.44002 35183 ft 477 kts 97°
2026-05-01 14:01 51.10119 2.54454 35189 ft 477 kts 98°
2026-05-01 14:02 51.09426 2.64953 35184 ft 476 kts 102°
2026-05-01 14:02 51.07796 2.75104 35190 ft 473 kts 109°
2026-05-01 14:03 51.05916 2.85127 35191 ft 473 kts 109°
2026-05-01 14:03 51.04059 2.95155 35207 ft 473 kts 108°
2026-05-01 14:04 51.02215 3.05200 35202 ft 474 kts 108°
2026-05-01 14:04 51.00667 3.13618 35201 ft 474 kts 108°
2026-05-01 14:05 50.98509 3.25281 35196 ft 474 kts 108°
2026-05-01 14:05 50.96639 3.35316 35188 ft 474 kts 108°
2026-05-01 14:06 50.94760 3.45350 35198 ft 474 kts 108°
2026-05-01 14:06 50.92876 3.55366 35198 ft 474 kts 108°
2026-05-01 14:07 50.90983 3.65370 35204 ft 474 kts 109°
2026-05-01 14:08 50.88117 3.80355 35205 ft 474 kts 108°
2026-05-01 14:08 50.86195 3.90341 35211 ft 474 kts 108°
2026-05-01 14:09 50.84264 4.00331 35227 ft 475 kts 108°
2026-05-01 14:09 50.82324 4.10322 35226 ft 475 kts 109°
2026-05-01 14:10 50.80375 4.20302 35238 ft 475 kts 109°
2026-05-01 14:10 50.78416 4.30282 35238 ft 475 kts 109°
2026-05-01 14:11 50.76450 4.40247 35239 ft 475 kts 109°
2026-05-01 14:11 50.73501 4.55097 35239 ft 475 kts 109°
2026-05-01 14:12 50.71517 4.65025 35240 ft 474 kts 109°
2026-05-01 14:12 50.69523 4.74951 35240 ft 475 kts 109°
2026-05-01 14:13 50.67859 4.83208 35244 ft 475 kts 109°
2026-05-01 14:13 50.65506 4.94812 35242 ft 476 kts 109°
2026-05-01 14:14 50.63475 5.04743 35240 ft 476 kts 109°
2026-05-01 14:14 50.61434 5.14676 35225 ft 477 kts 109°
2026-05-01 14:15 50.59381 5.24627 35246 ft 478 kts 109°
2026-05-01 14:15 50.57317 5.34586 35243 ft 480 kts 109°
2026-05-01 14:16 50.55238 5.44569 35235 ft 481 kts 109°
2026-05-01 14:16 50.53147 5.54562 35247 ft 481 kts 109°
2026-05-01 14:17 50.51053 5.64562 35236 ft 482 kts 109°
2026-05-01 14:17 50.50076 5.69608 35127 ft 483 kts 108°
2026-05-01 14:17 50.49156 5.74594 34955 ft 482 kts 108°
2026-05-01 14:18 50.48238 5.79651 34675 ft 480 kts 108°
2026-05-01 14:18 50.47320 5.84673 34442 ft 477 kts 108°
2026-05-01 14:18 50.46397 5.89659 34195 ft 474 kts 108°
2026-05-01 14:18 50.45770 5.93010 34016 ft 473 kts 108°
2026-05-01 14:19 50.44538 5.99545 33654 ft 470 kts 108°
2026-05-01 14:19 50.43606 6.04452 33382 ft 469 kts 108°
2026-05-01 14:19 50.42700 6.09361 33114 ft 468 kts 105°
2026-05-01 14:19 50.42031 6.14357 32744 ft 469 kts 101°
2026-05-01 14:20 50.41466 6.19371 32379 ft 465 kts 100°
2026-05-01 14:20 50.40389 6.29258 31596 ft 456 kts 101°
2026-05-01 14:20 50.39838 6.34136 31129 ft 452 kts 101°
2026-05-01 14:21 50.39280 6.38955 30657 ft 447 kts 101°
2026-05-01 14:21 50.38718 6.43736 29932 ft 446 kts 101°
2026-05-01 14:21 50.38151 6.48503 29189 ft 445 kts 100°
2026-05-01 14:22 50.37209 6.56377 28059 ft 441 kts 100°
2026-05-01 14:22 50.36643 6.61091 27353 ft 440 kts 100°
2026-05-01 14:22 50.36078 6.65786 26744 ft 437 kts 100°
2026-05-01 14:22 50.35517 6.70435 26108 ft 434 kts 100°
2026-05-01 14:23 50.34957 6.75066 25497 ft 432 kts 101°
2026-05-01 14:23 50.34396 6.79681 24897 ft 430 kts 101°
2026-05-01 14:23 50.33838 6.84254 24264 ft 428 kts 101°
2026-05-01 14:23 50.33068 6.88731 23550 ft 426 kts 111°
2026-05-01 14:24 50.31813 6.92912 22903 ft 423 kts 117°
2026-05-01 14:24 50.30478 6.96974 22529 ft 414 kts 116°
2026-05-01 14:24 50.29225 7.00943 22330 ft 401 kts 116°
2026-05-01 14:24 50.28039 7.04840 22053 ft 392 kts 115°
2026-05-01 14:25 50.26887 7.08700 21683 ft 392 kts 115°
2026-05-01 14:25 50.25735 7.12569 21236 ft 392 kts 115°
2026-05-01 14:25 50.24589 7.16412 20738 ft 390 kts 115°
2026-05-01 14:25 50.23442 7.20245 20170 ft 389 kts 115°
2026-05-01 14:26 50.22292 7.24079 19571 ft 389 kts 116°
2026-05-01 14:26 50.20034 7.31583 18598 ft 371 kts 116°
2026-05-01 14:26 50.18998 7.35238 17712 ft 367 kts 113°
2026-05-01 14:27 50.18102 7.38936 16882 ft 365 kts 111°
2026-05-01 14:27 50.17246 7.42661 16352 ft 364 kts 110°
2026-05-01 14:27 50.16395 7.46355 15903 ft 360 kts 111°
2026-05-01 14:28 50.14684 7.53627 14905 ft 356 kts 111°
2026-05-01 14:28 50.13821 7.57242 14472 ft 353 kts 111°
2026-05-01 14:28 50.12967 7.60804 14045 ft 349 kts 111°
2026-05-01 14:28 50.12117 7.64333 13507 ft 347 kts 111°
2026-05-01 14:29 50.11268 7.67854 12958 ft 346 kts 111°
2026-05-01 14:29 50.10491 7.71411 12373 ft 347 kts 109°
2026-05-01 14:30 50.08616 7.81348 11506 ft 291 kts 108°
2026-05-01 14:30 50.08079 7.84300 11190 ft 284 kts 102°
2026-05-01 14:30 50.07959 7.87376 10663 ft 287 kts 93°
2026-05-01 14:31 50.07802 7.93541 9664 ft 280 kts 107°
2026-05-01 14:31 50.06913 7.96192 9153 ft 275 kts 135°
2026-05-01 14:31 50.05369 7.97826 8807 ft 268 kts 161°
2026-05-01 14:31 50.03543 7.98144 8394 ft 267 kts 187°
2026-05-01 14:32 50.01809 7.97092 7878 ft 273 kts 214°
2026-05-01 14:32 50.00404 7.95110 7470 ft 272 kts 223°
2026-05-01 14:32 49.99156 7.92929 7051 ft 271 kts 234°
2026-05-01 14:32 49.98264 7.90328 6643 ft 269 kts 236°
2026-05-01 14:33 49.97022 7.88218 6086 ft 265 kts 208°
2026-05-01 14:33 49.95329 7.87380 5807 ft 252 kts 180°
2026-05-01 14:33 49.93670 7.87941 5541 ft 242 kts 153°
2026-05-01 14:33 49.92262 7.89336 5195 ft 240 kts 144°
2026-05-01 14:34 49.91078 7.91114 5028 ft 240 kts 121°
2026-05-01 14:34 49.90623 7.93644 5005 ft 252 kts 91°
2026-05-01 14:34 49.90947 7.96325 5003 ft 254 kts 77°
2026-05-01 14:34 49.91506 7.98917 4987 ft 253 kts 73°
2026-05-01 14:35 49.92122 8.01489 4995 ft 256 kts 73°
2026-05-01 14:35 49.92746 8.04066 5005 ft 253 kts 74°
2026-05-01 14:35 49.93357 8.06578 4975 ft 244 kts 73°
2026-05-01 14:35 49.93939 8.08972 4997 ft 231 kts 73°
2026-05-01 14:36 49.94498 8.11307 5011 ft 230 kts 74°
2026-05-01 14:36 49.95053 8.13630 5002 ft 226 kts 73°
2026-05-01 14:36 49.95601 8.15909 4865 ft 228 kts 74°
2026-05-01 14:36 49.96154 8.18211 4531 ft 226 kts 73°
2026-05-01 14:37 49.96695 8.20469 4212 ft 219 kts 73°
2026-05-01 14:37 49.97202 8.22615 3923 ft 206 kts 72°
2026-05-01 14:37 49.97697 8.24646 3637 ft 200 kts 73°
2026-05-01 14:37 49.98180 8.26627 3419 ft 193 kts 72°
2026-05-01 14:38 49.98650 8.28594 3134 ft 194 kts 73°
2026-05-01 14:38 49.99123 8.30582 2855 ft 199 kts 72°
2026-05-01 14:38 49.99603 8.32593 2623 ft 199 kts 71°
2026-05-01 14:38 50.00070 8.34524 2377 ft 181 kts 73°
2026-05-01 14:39 50.00491 8.36274 2144 ft 166 kts 74°
2026-05-01 14:39 50.00878 8.37898 1893 ft 155 kts 73°
2026-05-01 14:39 50.01235 8.39383 1733 ft 139 kts 74°
2026-05-01 14:39 50.01565 8.40764 1566 ft 139 kts 74°
2026-05-01 14:40 50.01908 8.42198 1339 ft 139 kts 73°
2026-05-01 14:40 50.02245 8.43609 1180 ft 141 kts 72°
2026-05-01 14:40 50.02585 8.45032 955 ft 139 kts 71°
2026-05-01 14:40 50.02924 8.46445 789 ft 140 kts 72°
2026-05-01 14:41 50.03267 8.47858 588 ft 138 kts 73°
2026-05-01 14:41 50.03587 8.49215 416 ft 132 kts 74°
2026-05-01 14:41 50.03906 8.50556 322 ft 125 kts 69°
2026-05-01 14:41 50.04133 8.51501 334 ft 63 kts 70°
2026-05-01 14:42 50.04286 8.52135 347 ft 51 kts 69°
2026-05-01 14:42 50.04380 8.52535 350 ft 29 kts 75°
2026-05-01 14:42 50.04389 8.52839 354 ft 24 kts 96°
2026-05-01 14:42 50.04370 8.53034 364 ft 17 kts 99°
2026-05-01 14:43 50.04353 8.53191 364 ft 12 kts 98°
2026-05-01 14:43 50.04356 8.53312 366 ft 11 kts 77°
2026-05-01 14:43 50.04379 8.53422 365 ft 11 kts 71°
2026-05-01 14:43 50.04396 8.53536 367 ft 11 kts 83°
2026-05-01 14:44 50.04403 8.53653 364 ft 11 kts 84°
2026-05-01 14:44 50.04421 8.53929 362 ft 13 kts 84°
2026-05-01 14:44 50.04430 8.54070 367 ft 13 kts 84°
2026-05-01 14:45 50.04439 8.54209 365 ft 13 kts 84°
2026-05-01 14:45 50.04449 8.54484 366 ft 13 kts 97°
2026-05-01 14:45 50.04420 8.54614 364 ft 13 kts 118°
2026-05-01 14:46 50.04363 8.54718 365 ft 13 kts 141°
2026-05-01 14:46 50.04207 8.54833 366 ft 12 kts 159°
2026-05-01 14:46 50.04126 8.54879 367 ft 12 kts 160°
2026-05-01 14:47 50.04053 8.54920 366 ft 9 kts 159°
2026-05-01 14:47 50.04008 8.54924 366 ft 7 kts 204°
2026-05-01 14:47 50.03983 8.54862 364 ft 7 kts 246°
2026-05-01 14:48 50.03960 8.54720 365 ft 7 kts 283°
2026-05-01 14:48 50.03995 8.54678 365 ft 3 kts 338°
2026-05-01 14:48 50.04019 8.54614 364 ft 2 kts 251°
2026-05-01 14:49 50.04005 8.54555 365 ft 2 kts 250°
2026-05-01 14:49 50.04001 8.54538 363 ft 0 kts 250°